Regional Weather Roundup
Issued by NWS

Home | Current Version | Previous Version | Graphics & Text | Print | Product List | Glossary On
Versions: 1 2 3 4 5 6 7 8 9 10 11 12 13 14 15 16 17 18 19 20 21 22 23 24 25 26 27 28 29 30 31 32 33 34 35 36 37 38 39 40 41 42 43 44 45 46 47 48 49 50
000
ASUS43 KFSD 202302
RWRSD

WEATHER ROUNDUP FOR SOUTH DAKOTA
NATIONAL WEATHER SERVICE SIOUX FALLS SD
500 PM CST MON NOV 20 2017

NOTE: "FAIR" INDICATES FEW OR NO CLOUDS BELOW 12,000 FEET WITH NO
SIGNIFICANT WEATHER AND/OR OBSTRUCTIONS TO VISIBILITY.


SDZ001>005-009-010-012>017-210000-
NORTHWEST AND NORTH CENTRAL SOUTH DAKOTA

CITY           SKY/WX    TMP DP  RH WIND       PRES   REMARKS
BUFFALO          N/A     47  23  38 NW13      29.61R
FAITH            N/A     49  23  36 NW14      29.63R
MOBRIDGE       CLEAR     54  25  32 NW20G29   29.55R
$$

SDZ012>016-024>037-041>051-057-063-072>074-210000-
SOUTHWEST AND SOUTH CENTRAL SOUTH DAKOTA

CITY           SKY/WX    TMP DP  RH WIND       PRES   REMARKS
RAPID CTY ARPT CLEAR     56  22  26 N18       29.66R
PIERRE         CLEAR     54  23  30 NW10      29.60R
CUSTER         CLOUDY    45  17  32 W3        29.74R
ELLSWORTH AFB  CLEAR     57  22  25 N12       29.66R
PHILIP         PTCLDY    57  22  25 NW13      29.65R
PINE RIDGE     CLOUDY    55  18  23 W7        29.68S
SPEARFISH      FAIR      54  21  28 NW17      29.69R
WINNER         FAIR      58  20  22 NW13      29.61R
$$

SDZ004>011-016>023-039-040-210000-
NORTHEAST SOUTH DAKOTA

CITY           SKY/WX    TMP DP  RH WIND       PRES   REMARKS
ABERDEEN       CLEAR     53  21  28 NW14      29.51R
WATERTOWN      CLEAR     41  26  55 W10       29.50R
BROOKINGS      CLOUDY    45  26  47 SW8       29.51R
SISSETON         N/A     49  26  41 W13       29.44R
$$

SDZ017-020-022-023-036>040-048>070-210000-
SOUTHEAST SOUTH DAKOTA

CITY           SKY/WX    TMP DP  RH WIND       PRES   REMARKS
SIOUX FALLS    MOCLDY    48  28  46 SW5       29.55R
HURON          CLEAR     47  20  34 W12       29.54R
CHAMBERLAIN    CLOUDY    60  22  23 NW13G20   29.59R
MITCHELL       CLOUDY    54  23  30 W10       29.55R
YANKTON        PTCLDY    51  27  39 SW3       29.58R
$$

ABBREVIATIONS USED IN REMARKS
   TC - TEMPERATURE IN CELSIUS
  WCI - WIND CHILL INDEX
   HX - HEAT INDEX
  VSB - VISIBILITY





USA.gov is the U.S. government's official web portal to all federal, state and local government web resources and services.